Total_Precipitation_Accumulation
0.14 0.14 0.13 0.13 0.12 0.10 0.09 0.10 0.10 0.08 0.07 0.08 0.07 0.06 0.06 0.06 0.03 0.04 0.04 0.04 0.03 0.03 0.03 0.01 0.02 0.02 0.01 0.01 0.00 0.00 0.00 0.01 0.00 0.00 0.00 0.00 0.00 0.00 0.00 0.00 0.00 0.00 0.00 0.00 0.00 0.00 0.00 0.00 0.00 0.00 0.00 0.00 0.00 0.00 0.00 0.00 0.00 0.00 0.00 0.00 0.00 0.01 0.00 0.00 0.00 0.00 0.00 0.00 0.00 0.01 0.01 0.00 0.01 0.00 0.00 0.00 0.02 0.02 0.05 0.06 0.10 0.08 0.22 0.42 0.19 0.28 0.51 0.38
0.14 0.13 0.13 0.13 0.12 0.11 0.09 0.08 0.08 0.09 0.07 0.06 0.08 0.07 0.08 0.05 0.06 0.02 0.04 0.03 0.04 0.03 0.02 0.03 0.02 0.01 0.01 0.00 0.00 0.01 0.01 0.00 0.00 0.00 0.00 0.00 0.00 0.00 0.00 0.00 0.00 0.00 0.00 0.00 0.00 0.00 0.00 0.00 0.00 0.00 0.00 0.00 0.00 0.00 0.00 0.00 0.00 0.00 0.00 0.00 0.00 0.00 0.00 0.00 0.00 0.00 0.00 0.00 0.02 0.01 0.01 0.00 0.03 0.00 0.01 0.05 0.05 0.08 0.10 0.11 0.08 0.30 0.29 0.30 0.22 0.45 0.38 0.33
0.13 0.13 0.14 0.12 0.13 0.11 0.10 0.09 0.08 0.08 0.08 0.06 0.07 0.08 0.06 0.05 0.05 0.04 0.02 0.03 0.03 0.02 0.02 0.02 0.03 0.01 0.00 0.00 0.00 0.01 0.01 0.00 0.00 0.00 0.00 0.00 0.00 0.00 0.00 0.00 0.00 0.00 0.00 0.00 0.00 0.00 0.00 0.00 0.00 0.00 0.00 0.00 0.00 0.00 0.00 0.00 0.00 0.00 0.00 0.00 0.00 0.00 0.00 0.00 0.00 0.00 0.00 0.00 0.00 0.03 0.03 0.00 0.00 0.00 0.00 0.08 0.04 0.06 0.15 0.12 0.12 0.30 0.53 0.35 0.34 0.49 0.36 0.31
0.10 0.11 0.10 0.12 0.10 0.10 0.09 0.07 0.08 0.07 0.07 0.09 0.06 0.06 0.06 0.06 0.04 0.04 0.04 0.03 0.02 0.02 0.02 0.02 0.01 0.01 0.01 0.00 0.00 0.01 0.00 0.00 0.00 0.00 0.00 0.00 0.00 0.00 0.00 0.00 0.00 0.00 0.00 0.00 0.00 0.00 0.00 0.00 0.00 0.00 0.00 0.00 0.00 0.00 0.00 0.00 0.00 0.00 0.00 0.01 0.00 0.00 0.00 0.00 0.00 0.00 0.00 0.00 0.00 0.01 0.02 0.02 0.02 0.02 0.02 0.02 0.05 0.08 0.19 0.12 0.11 0.19 0.27 0.37 0.54 0.68 0.91 1.47
0.11 0.11 0.12 0.09 0.09 0.09 0.09 0.09 0.07 0.09 0.09 0.08 0.08 0.08 0.07 0.04 0.05 0.04 0.04 0.02 0.03 0.02 0.03 0.02 0.01 0.00 0.00 0.01 0.01 0.00 0.00 0.00 0.00 0.00 0.00 0.00 0.00 0.00 0.00 0.00 0.00 0.00 0.00 0.00 0.00 0.00 0.00 0.00 0.00 0.00 0.00 0.00 0.00 0.00 0.00 0.00 0.00 0.00 0.00 0.00 0.00 0.00 0.00 0.00 0.00 0.00 0.00 0.00 0.00 0.01 0.01 0.08 0.04 0.05 0.06 0.09 0.05 0.11 0.04 0.06 0.08 0.09 0.50 0.24 0.55 0.74 0.93 1.20
0.09 0.12 0.12 0.10 0.08 0.09 0.08 0.06 0.07 0.06 0.07 0.07 0.08 0.07 0.08 0.06 0.05 0.05 0.03 0.04 0.04 0.03 0.02 0.01 0.01 0.00 0.00 0.00 0.00 0.00 0.00 0.00 0.00 0.00 0.00 0.00 0.00 0.00 0.00 0.00 0.00 0.00 0.00 0.00 0.00 0.00 0.00 0.00 0.00 0.00 0.00 0.00 0.00 0.00 0.00 0.00 0.00 0.00 0.00 0.00 0.00 0.00 0.00 0.00 0.00 0.00 0.00 0.00 0.01 0.01 0.02 0.05 0.05 0.05 0.01 0.00 0.12 0.08 0.08 0.16 0.06 0.12 0.17 0.15 0.30 0.39 0.49 0.82
0.10 0.12 0.08 0.08 0.08 0.08 0.06 0.08 0.06 0.07 0.09 0.06 0.07 0.06 0.05 0.08 0.05 0.03 0.04 0.05 0.04 0.04 0.01 0.01 0.01 0.01 0.00 0.00 0.00 0.00 0.00 0.00 0.00 0.00 0.00 0.00 0.00 0.00 0.00 0.00 0.00 0.00 0.00 0.00 0.00 0.00 0.00 0.00 0.00 0.00 0.00 0.00 0.00 0.00 0.00 0.00 0.00 0.00 0.00 0.00 0.00 0.00 0.00 0.00 0.00 0.00 0.00 0.00 0.03 0.02 0.00 0.05 0.04 0.01 0.02 0.01 0.01 0.03 0.01 0.02 0.02 0.10 0.23 0.25 0.28 0.54 0.40 0.65
0.09 0.08 0.06 0.06 0.06 0.10 0.10 0.08 0.09 0.07 0.08 0.08 0.06 0.06 0.05 0.06 0.07 0.06 0.04 0.04 0.04 0.02 0.03 0.01 0.01 0.00 0.00 0.00 0.00 0.00 0.00 0.00 0.00 0.00 0.00 0.00 0.00 0.00 0.00 0.00 0.00 0.00 0.00 0.00 0.00 0.00 0.00 0.00 0.00 0.00 0.00 0.00 0.00 0.00 0.00 0.00 0.00 0.00 0.00 0.00 0.00 0.00 0.00 0.00 0.00 0.00 0.00 0.00 0.01 0.01 0.02 0.01 0.02 0.01 0.00 0.02 0.01 0.02 0.04 0.00 0.03 0.09 0.20 0.23 0.36 0.66 0.84 1.17
0.11 0.07 0.06 0.05 0.05 0.04 0.07 0.08 0.06 0.06 0.05 0.04 0.05 0.04 0.05 0.04 0.06 0.04 0.03 0.05 0.02 0.02 0.01 0.01 0.00 0.01 0.00 0.02 0.00 0.00 0.00 0.00 0.00 0.00 0.00 0.00 0.00 0.00 0.00 0.00 0.00 0.00 0.00 0.00 0.00 0.00 0.00 0.00 0.00 0.00 0.00 0.00 0.00 0.00 0.00 0.00 0.00 0.00 0.00 0.00 0.00 0.00 0.00 0.00 0.00 0.00 0.00 0.00 0.01 0.01 0.00 0.00 0.00 0.00 0.02 0.11 0.05 0.03 0.02 0.02 0.03 0.07 0.12 0.34 0.39 0.41 0.73 0.86
0.09 0.09 0.06 0.06 0.05 0.04 0.05 0.06 0.05 0.05 0.04 0.04 0.03 0.04 0.06 0.06 0.03 0.08 0.04 0.04 0.03 0.03 0.02 0.01 0.01 0.02 0.00 0.00 0.00 0.01 0.00 0.00 0.00 0.00 0.00 0.00 0.00 0.00 0.00 0.00 0.00 0.00 0.00 0.00 0.00 0.00 0.00 0.00 0.00 0.00 0.00 0.00 0.00 0.00 0.00 0.00 0.00 0.00 0.00 0.00 0.00 0.00 0.00 0.00 0.00 0.00 0.00 0.00 0.00 0.00 0.00 0.02 0.00 0.00 0.18 1.19 0.22 0.06 0.04 0.03 0.05 0.06 0.16 0.42 0.53 0.56 0.73 1.05
0.17 0.08 0.09 0.07 0.05 0.04 0.04 0.03 0.05 0.05 0.04 0.03 0.04 0.06 0.05 0.04 0.07 0.04 0.06 0.03 0.05 0.02 0.02 0.01 0.04 0.01 0.03 0.01 0.01 0.00 0.00 0.00 0.00 0.00 0.00 0.00 0.00 0.00 0.00 0.00 0.00 0.00 0.00 0.00 0.00 0.00 0.00 0.00 0.00 0.00 0.00 0.00 0.00 0.00 0.00 0.00 0.00 0.00 0.00 0.00 0.00 0.00 0.00 0.00 0.00 0.00 0.00 0.00 0.01 0.00 0.00 0.00 0.00 0.00 0.05 0.12 0.77 0.52 0.06 0.05 0.05 0.10 0.27 0.40 0.60 0.70 0.56 1.16
0.08 0.08 0.16 0.10 0.08 0.05 0.06 0.05 0.05 0.05 0.04 0.05 0.06 0.05 0.09 0.04 0.05 0.03 0.05 0.05 0.02 0.03 0.01 0.00 0.02 0.08 0.01 0.03 0.04 0.00 0.00 0.00 0.00 0.00 0.00 0.00 0.00 0.00 0.00 0.00 0.00 0.00 0.00 0.00 0.00 0.00 0.00 0.00 0.00 0.00 0.00 0.00 0.00 0.00 0.00 0.00 0.00 0.00 0.00 0.00 0.00 0.00 0.00 0.00 0.00 0.00 0.00 0.00 0.00 0.00 0.02 0.00 0.00 0.01 0.10 0.12 0.15 0.91 1.16 0.20 0.09 0.15 0.24 0.44 0.40 0.63 0.53 0.66
0.09 0.10 0.10 0.09 0.06 0.11 0.07 0.04 0.06 0.06 0.05 0.05 0.07 0.06 0.05 0.07 0.05 0.06 0.04 0.03 0.02 0.02 0.01 0.02 0.02 0.07 0.10 0.04 0.00 0.00 0.00 0.00 0.00 0.00 0.00 0.00 0.00 0.00 0.00 0.00 0.00 0.00 0.00 0.00 0.00 0.00 0.00 0.00 0.00 0.00 0.00 0.00 0.00 0.01 0.00 0.00 0.00 0.00 0.00 0.00 0.00 0.00 0.00 0.00 0.00 0.00 0.00 0.00 0.00 0.00 0.04 0.02 0.03 0.06 0.11 1.08 0.54 0.69 0.27 0.27 0.24 0.26 0.21 0.32 0.62 0.77 1.05 1.34
0.10 0.09 0.10 0.10 0.09 0.07 0.05 0.11 0.05 0.06 0.05 0.05 0.04 0.08 0.06 0.05 0.09 0.07 0.06 0.05 0.04 0.03 0.01 0.02 0.08 0.03 0.12 0.01 0.00 0.00 0.00 0.00 0.00 0.00 0.00 0.00 0.00 0.00 0.00 0.00 0.00 0.00 0.00 0.00 0.00 0.00 0.00 0.00 0.00 0.00 0.00 0.00 0.01 0.00 0.00 0.00 0.00 0.00 0.00 0.00 0.00 0.00 0.01 0.00 0.00 0.00 0.00 0.00 0.00 0.00 0.01 0.07 0.03 0.13 0.21 1.27 0.82 0.33 0.21 0.39 0.46 0.41 0.55 0.70 0.96 0.96 0.65 0.67
0.19 0.10 0.10 0.07 0.07 0.10 0.10 0.05 0.03 0.04 0.04 0.05 0.06 0.06 0.07 0.13 0.05 0.04 0.08 0.05 0.05 0.03 0.03 0.07 0.04 0.04 0.04 0.00 0.00 0.00 0.00 0.00 0.00 0.00 0.00 0.00 0.00 0.00 0.00 0.00 0.00 0.00 0.00 0.00 0.00 0.00 0.00 0.00 0.00 0.00 0.00 0.00 0.00 0.00 0.00 0.00 0.00 0.00 0.00 0.01 0.00 0.02 0.02 0.00 0.00 0.00 0.00 0.00 0.00 0.00 0.00 0.19 0.07 0.11 0.12 0.20 0.62 0.50 0.74 1.01 1.21 0.85 0.88 1.43 1.61 1.13 1.18 1.60
0.22 0.12 0.12 0.19 0.08 0.06 0.04 0.07 0.05 0.05 0.02 0.05 0.05 0.03 0.07 0.05 0.05 0.07 0.07 0.04 0.06 0.04 0.06 0.07 0.02 0.01 0.01 0.00 0.00 0.00 0.00 0.00 0.00 0.00 0.00 0.00 0.00 0.00 0.00 0.00 0.00 0.00 0.00 0.00 0.00 0.00 0.00 0.00 0.00 0.00 0.00 0.00 0.00 0.00 0.01 0.00 0.00 0.00 0.00 0.00 0.00 0.00 0.00 0.02 0.00 0.00 0.00 0.00 0.00 0.00 0.04 0.12 0.17 0.18 0.11 0.14 0.27 0.62 0.86 1.26 1.12 0.62 1.12 1.40 1.37 1.05 1.42 0.84
0.23 0.13 0.09 0.09 0.11 0.09 0.06 0.07 0.06 0.11 0.07 0.03 0.03 0.05 0.14 0.07 0.11 0.04 0.06 0.07 0.07 0.05 0.06 0.02 0.02 0.03 0.08 0.00 0.00 0.00 0.00 0.00 0.00 0.00 0.00 0.00 0.00 0.00 0.00 0.00 0.00 0.00 0.00 0.00 0.00 0.00 0.00 0.00 0.00 0.00 0.00 0.00 0.00 0.01 0.01 0.01 0.01 0.01 0.00 0.01 0.00 0.00 0.01 0.02 0.00 0.00 0.00 0.00 0.00 0.00 0.02 0.16 0.19 0.20 0.27 0.38 0.84 0.83 0.55 1.53 1.59 1.73 1.28 1.03 1.52 1.19 0.81 1.35
0.16 0.14 0.14 0.14 0.07 0.07 0.07 0.09 0.08 0.13 0.05 0.04 0.05 0.03 0.11 0.08 0.09 0.07 0.09 0.08 0.05 0.03 0.03 0.03 0.01 0.02 0.00 0.00 0.00 0.00 0.00 0.00 0.00 0.00 0.00 0.00 0.00 0.00 0.00 0.00 0.00 0.00 0.00 0.00 0.00 0.00 0.00 0.00 0.00 0.00 0.00 0.00 0.00 0.01 0.02 0.11 0.04 0.04 0.03 0.01 0.04 0.02 0.01 0.00 0.00 0.01 0.00 0.00 0.00 0.00 0.01 0.11 0.12 0.19 0.25 0.85 0.72 0.90 1.32 1.29 1.16 1.10 0.78 0.58 0.53 0.48 0.93 0.74
0.26 0.18 0.12 0.08 0.08 0.19 0.11 0.09 0.10 0.05 0.19 0.06 0.03 0.08 0.08 0.09 0.07 0.08 0.07 0.14 0.10 0.18 0.34 0.10 0.15 0.07 0.04 0.00 0.00 0.00 0.00 0.00 0.00 0.00 0.00 0.00 0.00 0.00 0.00 0.00 0.00 0.00 0.00 0.00 0.00 0.00 0.00 0.00 0.00 0.00 0.03 0.03 0.01 0.01 0.00 0.00 0.00 0.00 0.00 0.01 0.01 0.01 0.03 0.02 0.02 0.00 0.00 0.00 0.00 0.00 0.07 0.11 0.14 0.22 0.69 2.40 1.66 0.84 0.56 0.72 1.13 0.40 0.50 0.59 0.77 0.86 0.70 0.73
0.14 0.19 0.17 0.16 0.21 0.11 0.20 0.10 0.08 0.12 0.09 0.12 0.13 0.10 0.11 0.19 0.13 0.13 0.08 0.10 0.07 0.00 0.00 0.00 0.00 0.00 0.00 0.00 0.00 0.00 0.00 0.00 0.00 0.00 0.00 0.00 0.00 0.00 0.00 0.00 0.00 0.00 0.00 0.01 0.02 0.00 0.00 0.00 0.01 0.13 0.03 0.02 0.00 0.00 0.00 0.00 0.00 0.00 0.00 0.00 0.01 0.01 0.01 0.00 0.00 0.00 0.00 0.00 0.02 0.02 0.12 0.09 0.18 0.17 0.75 1.85 1.39 0.87 1.30 1.29 0.72 0.64 0.45 1.22 0.74 0.75 0.86 1.23
0.25 0.12 0.17 0.19 0.12 0.23 0.14 0.18 0.15 0.07 0.08 0.10 0.16 0.18 0.23 0.07 0.10 0.16 0.04 0.01 0.00 0.00 0.00 0.00 0.00 0.00 0.00 0.00 0.00 0.00 0.00 0.00 0.00 0.00 0.00 0.00 0.00 0.00 0.00 0.00 0.00 0.00 0.00 0.00 0.00 0.00 0.00 0.01 0.05 0.01 0.00 0.00 0.00 0.00 0.00 0.00 0.00 0.00 0.00 0.01 0.02 0.01 0.04 0.01 0.02 0.00 0.00 0.00 0.04 0.05 0.04 0.10 0.11 0.30 1.03 0.50 0.98 0.95 0.59 1.50 1.75 2.39 1.92 1.39 1.84 1.78 1.68 1.43
0.31 0.24 0.22 0.23 0.39 0.22 0.25 0.16 0.12 0.09 0.18 0.22 0.38 0.18 0.12 0.02 0.04 0.03 0.14 0.09 0.01 0.00 0.00 0.00 0.00 0.00 0.00 0.00 0.00 0.00 0.00 0.00 0.00 0.00 0.00 0.00 0.00 0.00 0.00 0.00 0.00 0.00 0.00 0.00 0.00 0.01 0.00 0.06 0.03 0.01 0.01 0.00 0.00 0.00 0.00 0.00 0.00 0.00 0.00 0.01 0.01 0.06 0.03 0.02 0.01 0.00 0.00 0.00 0.07 0.05 0.05 0.18 0.18 0.28 0.59 0.51 0.56 1.43 1.67 2.19 2.57 2.40 1.93 2.42 1.78 2.03 1.54 1.24
0.27 0.16 0.28 0.19 0.28 0.34 0.23 0.23 0.18 0.22 0.49 0.38 0.27 0.05 0.18 0.02 0.00 0.15 0.10 0.13 0.03 0.03 0.01 0.00 0.00 0.00 0.00 0.00 0.00 0.00 0.00 0.00 0.00 0.00 0.00 0.00 0.00 0.00 0.00 0.00 0.00 0.00 0.00 0.00 0.02 0.03 0.15 0.06 0.02 0.00 0.00 0.00 0.00 0.00 0.00 0.00 0.00 0.00 0.02 0.04 0.05 0.04 0.03 0.17 0.03 0.02 0.02 0.00 0.04 0.04 0.04 0.17 0.18 0.25 0.34 0.17 0.39 0.76 1.50 1.70 2.34 3.80 2.94 2.36 2.62 1.66 2.19 1.68
0.23 0.32 0.20 0.31 0.26 0.24 0.26 0.35 0.30 0.40 0.28 0.23 0.13 0.09 0.10 0.03 0.02 0.09 0.17 0.14 0.02 0.02 0.00 0.00 0.00 0.00 0.00 0.00 0.01 0.00 0.00 0.00 0.00 0.02 0.00 0.00 0.00 0.00 0.00 0.00 0.00 0.00 0.01 0.00 0.00 0.00 0.01 0.00 0.00 0.00 0.00 0.00 0.00 0.00 0.00 0.01 0.05 0.01 0.01 0.02 0.05 0.06 0.04 0.01 0.13 0.01 0.01 0.02 0.01 0.03 0.13 0.15 0.19 0.25 0.23 0.21 0.18 0.20 0.42 0.58 0.66 0.67 0.77 0.83 1.07 0.96 1.37 1.57
0.33 0.29 0.42 0.29 0.31 0.30 0.31 0.46 0.30 0.31 0.29 0.38 0.20 0.11 0.09 0.08 0.02 0.12 0.12 0.12 0.04 0.00 0.00 0.00 0.00 0.00 0.00 0.00 0.00 0.00 0.00 0.00 0.00 0.00 0.00 0.00 0.01 0.00 0.00 0.00 0.00 0.00 0.00 0.00 0.00 0.00 0.02 0.01 0.00 0.00 0.00 0.00 0.00 0.03 0.00 0.00 0.03 0.11 0.05 0.01 0.02 0.01 0.07 0.10 0.05 0.06 0.09 0.12 0.12 0.05 0.30 0.36 0.30 0.35 0.27 0.36 0.31 0.25 0.26 0.52 0.59 0.56 0.68 0.44 0.90 0.93 0.56 0.48
0.32 0.28 0.27 0.27 0.26 0.42 0.75 0.52 0.50 0.50 0.35 0.49 0.29 0.16 0.08 0.06 0.05 0.09 0.17 0.25 0.10 0.03 0.00 0.05 0.00 0.02 0.00 0.00 0.00 0.00 0.00 0.01 0.00 0.00 0.00 0.00 0.01 0.00 0.03 0.00 0.00 0.00 0.00 0.00 0.00 0.01 0.01 0.00 0.00 0.00 0.01 0.00 0.00 0.02 0.02 0.03 0.14 0.14 0.32 0.02 0.03 0.01 0.02 0.62 0.37 0.02 0.14 0.18 0.33 0.03 0.09 0.38 0.25 0.32 0.25 0.37 0.31 0.37 0.39 0.50 0.71 0.61 0.45 0.47 0.78 0.99 0.98 0.72
0.21 0.30 0.36 0.28 0.36 0.50 0.34 0.62 0.63 0.41 0.60 0.50 0.38 0.34 0.10 0.21 0.18 0.18 0.48 0.18 0.23 0.06 0.03 0.01 0.02 0.05 0.00 0.06 0.00 0.00 0.47 0.07 0.00 0.00 0.00 0.00 0.01 0.01 0.01 0.01 0.00 0.00 0.01 0.06 0.00 0.06 0.00 0.00 0.00 0.00 0.01 0.01 0.06 0.11 0.10 0.00 0.06 0.25 0.03 0.03 0.02 0.03 0.07 0.21 0.11 0.07 0.05 0.00 0.01 0.00 0.02 0.18 0.36 0.21 0.11 0.22 0.33 0.25 0.57 0.59 0.33 0.49 0.37 0.44 0.63 1.14 1.11 0.43
0.28 0.26 0.26 0.21 0.46 0.47 0.57 0.74 0.48 0.55 0.47 0.45 0.54 0.21 0.24 0.17 0.14 0.64 0.44 0.16 0.20 0.00 0.04 0.00 0.01 0.00 0.01 0.00 0.00 0.00 0.02 0.00 0.04 0.20 0.00 0.00 0.00 0.01 0.00 0.00 0.00 0.00 0.00 0.00 0.27 0.03 0.00 0.01 0.01 0.01 0.01 0.02 0.09 0.02 0.00 0.01 0.09 0.12 0.06 0.01 0.07 0.01 0.03 0.05 0.08 0.12 0.08 0.07 0.21 0.09 0.07 0.15 0.34 0.27 0.09 0.37 0.47 0.34 0.50 0.39 0.29 0.41 0.53 0.72 0.70 0.67 0.72 0.92
0.44 0.26 0.21 0.38 0.54 0.33 0.42 0.73 0.55 0.75 0.46 0.72 0.14 0.28 0.52 0.38 0.16 0.77 0.44 0.24 0.28 0.05 0.04 0.11 0.03 0.01 0.01 0.00 0.04 0.00 0.01 0.01 0.02 0.03 0.00 0.00 0.00 0.01 0.08 0.01 0.00 0.00 0.00 0.00 0.09 0.01 0.01 0.00 0.02 0.01 0.03 0.05 0.01 0.01 0.00 0.00 0.10 0.01 0.01 0.01 0.01 0.01 0.02 0.06 0.07 0.13 0.09 0.08 0.16 0.10 0.11 0.22 0.63 0.35 0.41 0.30 0.48 0.27 0.32 0.31 0.52 0.62 1.13 0.55 0.71 0.39 0.39 0.55
0.37 0.74 0.35 0.77 0.80 0.72 0.62 0.95 0.38 0.46 0.36 0.29 0.59 0.57 0.59 0.40 1.35 0.76 0.74 0.17 0.11 0.21 0.02 0.09 0.10 0.07 0.01 0.04 0.07 0.10 0.11 0.06 0.01 0.07 0.01 0.02 0.03 0.00 0.00 0.00 0.01 0.02 0.03 0.00 0.03 0.01 0.01 0.00 0.00 0.01 0.01 0.00 0.00 0.01 0.00 0.00 0.00 0.01 0.01 0.03 0.08 0.15 0.15 0.08 0.02 0.10 0.29 0.13 0.18 0.08 0.06 0.11 0.55 0.49 0.57 0.46 0.22 0.19 0.26 0.27 0.26 0.34 0.45 0.53 0.60 0.93 0.84 0.31
0.19 0.46 0.75 0.37 0.93 0.56 0.48 0.62 0.53 0.45 0.31 0.28 0.29 0.41 0.49 0.58 0.63 0.46 0.29 0.19 0.03 0.30 0.09 0.05 0.30 0.04 0.19 0.16 0.15 0.09 0.08 0.04 0.08 0.01 0.06 0.01 0.16 0.03 0.06 0.04 0.01 0.02 0.03 0.02 0.10 0.02 0.02 0.04 0.07 0.02 0.00 0.00 0.00 0.00 0.01 0.00 0.00 0.00 0.06 0.05 0.13 0.22 0.14 0.15 0.22 0.18 0.23 0.26 0.12 0.11 0.19 0.17 0.41 1.26 0.61 0.19 0.12 0.13 0.17 0.14 0.17 0.15 0.23 0.33 0.23 0.28 0.25 0.28
0.18 0.26 0.28 0.36 0.42 0.43 0.48 0.67 0.48 0.36 0.33 0.53 0.42 0.51 0.49 0.56 0.57 0.40 0.20 0.02 0.48 0.52 0.25 0.15 0.11 0.14 0.13 0.12 0.09 0.07 0.14 0.22 0.20 0.07 0.11 0.03 0.11 0.39 0.14 0.31 0.15 0.16 0.11 0.11 0.21 0.02 0.11 0.10 0.04 0.03 0.03 0.00 0.01 0.03 0.07 0.00 0.01 0.02 0.05 0.17 0.33 0.60 0.27 0.36 0.53 0.28 0.24 0.35 0.34 0.14 0.07 0.22 0.39 0.43 0.88 0.26 0.15 0.12 0.09 0.12 0.20 0.13 0.14 0.14 0.09 0.13 0.54 0.28
0.12 0.22 0.14 0.09 0.08 0.25 0.16 0.25 0.25 0.27 0.61 0.36 1.04 0.71 0.60 0.49 0.15 0.21 0.48 0.25 0.57 0.48 0.89 0.34 0.29 0.18 0.18 0.14 0.11 0.15 0.13 0.22 0.11 0.17 0.07 0.17 0.14 0.09 0.08 0.14 0.07 0.14 0.24 0.15 0.15 0.07 0.11 0.10 0.03 0.09 0.01 0.01 0.00 0.07 0.10 0.14 0.12 0.19 0.19 0.20 0.34 0.48 0.43 0.25 0.31 0.32 0.38 0.15 0.12 0.19 0.06 0.38 0.65 0.40 0.43 0.40 0.22 0.10 0.07 0.09 0.14 0.07 0.06 0.08 0.09 0.11 0.18 0.20
0.02 0.02 0.08 0.07 0.09 0.05 0.10 0.18 0.77 0.50 0.30 1.04 0.97 0.77 1.55 0.36 0.42 0.14 0.39 0.29 0.74 0.25 0.41 0.51 0.30 0.17 0.42 0.28 0.54 0.56 0.33 0.05 0.21 0.18 0.03 0.11 0.05 0.22 0.13 0.02 0.02 0.06 0.22 0.21 0.26 0.15 0.29 0.56 0.16 0.02 0.21 0.00 0.02 0.02 0.06 0.08 0.05 0.17 0.04 0.08 0.23 0.36 0.35 0.31 0.43 0.47 0.43 0.53 0.34 0.13 0.07 0.69 0.44 2.30 0.59 0.16 0.16 0.07 0.05 0.14 0.07 0.10 0.10 0.19 0.10 0.21 0.21 0.27
0.01 0.03 0.06 0.12 0.11 0.07 0.25 0.10 0.38 0.40 0.63 1.39 0.71 0.58 0.31 0.19 0.35 0.36 0.44 0.64 0.59 0.30 0.42 0.28 0.38 0.18 0.50 0.26 0.36 0.15 0.21 0.55 0.09 0.09 0.11 0.06 0.26 0.17 0.09 0.11 0.06 0.02 0.04 0.27 0.12 0.13 0.10 0.18 0.07 0.01 0.01 0.00 0.03 0.02 0.01 0.06 0.11 0.05 0.13 0.17 0.46 0.39 0.14 0.35 0.54 0.20 0.39 0.33 0.27 0.17 0.27 0.62 0.99 1.20 1.07 0.80 0.13 0.06 0.08 0.10 0.06 0.11 0.11 0.11 0.17 0.18 0.22 0.23
0.02 0.09 0.10 0.25 0.16 0.08 0.06 0.17 0.49 0.28 0.30 0.45 0.68 0.55 0.34 0.26 0.73 0.67 0.82 0.54 0.48 0.95 0.50 0.26 0.35 0.30 0.30 0.54 0.11 0.17 0.08 0.35 0.22 0.08 0.14 0.14 0.12 0.21 0.03 0.06 0.04 0.02 0.15 0.11 0.18 0.16 0.04 0.36 0.01 0.04 0.00 0.01 0.06 0.00 0.04 0.01 0.65 0.47 0.12 0.36 0.17 0.10 0.15 0.31 0.11 0.07 0.04 0.03 0.21 0.23 0.60 0.50 0.26 0.54 0.76 0.64 0.08 0.11 0.15 0.07 0.07 0.30 0.40 0.54 0.65 0.88 0.94 0.91
0.13 0.23 0.34 0.31 0.26 0.17 0.11 0.20 0.29 0.37 0.23 0.45 0.54 0.53 0.18 0.39 0.59 0.74 0.68 0.59 0.75 0.62 0.58 0.69 0.57 0.30 0.37 0.41 0.29 0.10 0.30 0.13 0.29 0.09 0.53 0.19 0.37 0.10 0.06 0.08 0.00 0.02 0.01 0.01 0.30 0.02 0.16 0.42 0.01 0.02 0.12 0.02 0.00 0.00 0.00 0.04 0.01 0.10 0.23 0.22 0.12 0.06 0.13 0.17 0.51 0.21 0.14 0.29 0.33 0.20 0.59 1.04 0.34 1.71 0.97 0.69 0.45 0.38 0.25 0.28 0.46 0.48 0.56 0.66 0.81 0.80 0.89 1.02
0.23 0.34 0.40 0.33 0.30 0.15 0.14 0.21 0.28 0.49 0.46 0.39 0.45 0.34 0.35 0.60 0.51 0.75 0.66 0.44 0.68 0.75 0.85 0.73 0.62 0.33 0.45 0.38 0.45 0.11 0.20 0.33 0.44 0.23 0.52 0.22 0.63 0.04 0.07 0.11 0.04 0.04 0.01 0.03 0.09 0.27 0.09 0.35 0.07 0.00 0.00 0.02 0.01 0.01 0.05 0.02 0.05 0.10 0.34 0.12 0.42 0.71 0.69 0.23 0.10 0.29 0.35 0.19 0.23 0.24 0.35 0.47 0.50 1.17 0.61 1.11 0.85 0.58 0.48 0.36 0.22 0.19 0.18 0.40 0.76 1.00 0.97 0.59
0.37 0.40 0.81 0.28 0.15 0.12 0.18 0.27 0.36 0.78 0.69 0.46 0.41 0.50 0.43 0.58 0.49 0.74 0.53 0.46 0.76 0.74 0.74 0.95 0.74 0.62 0.58 0.54 0.32 0.20 0.20 0.41 0.22 0.92 0.62 0.57 0.66 0.78 0.15 0.03 0.09 0.02 0.02 0.03 0.15 0.11 0.06 0.25 0.23 0.02 0.04 0.15 0.03 0.04 0.28 0.17 0.06 0.04 0.05 0.41 0.24 0.25 0.41 0.58 0.35 0.56 0.32 0.63 0.17 0.64 0.50 0.74 0.52 0.89 0.68 0.72 0.54 0.68 0.55 0.33 0.43 0.42 0.51 0.37 0.39 0.31 0.44 0.45
0.59 0.58 0.85 0.24 0.09 0.19 0.17 0.22 0.38 0.80 0.60 0.41 0.36 0.42 0.53 0.45 0.61 0.52 0.82 0.52 1.06 0.88 1.04 0.76 0.48 0.65 0.35 0.37 0.22 0.32 0.11 0.15 0.23 0.67 0.48 1.08 0.64 0.27 0.38 0.04 0.33 0.09 0.03 0.03 0.14 0.18 0.30 0.09 0.51 0.24 0.04 0.06 0.31 0.10 0.32 0.20 0.26 0.22 0.13 0.33 0.29 0.20 0.25 0.17 0.38 0.29 0.40 0.42 0.40 0.31 0.58 1.05 0.90 0.55 0.41 0.64 0.39 0.29 0.64 0.56 0.42 0.57 0.57 0.74 0.65 0.38 0.42 0.47
0.53 1.06 1.20 0.22 0.19 0.22 0.23 0.47 0.78 0.55 0.33 0.24 0.23 0.36 0.31 0.55 0.61 0.63 0.62 0.52 0.68 0.62 0.78 0.54 0.45 0.61 0.45 0.44 0.58 0.09 0.26 0.21 0.16 0.50 0.36 0.50 0.51 1.02 0.18 0.15 0.06 0.42 0.06 0.11 0.27 0.21 0.22 0.29 0.34 0.24 0.54 0.18 0.12 0.07 0.12 0.20 0.19 0.32 0.20 0.46 0.26 0.49 0.45 0.46 0.47 0.07 0.15 0.29 0.44 0.31 0.70 0.85 0.85 0.42 0.95 0.52 0.27 0.65 0.68 0.73 0.72 0.60 0.50 0.39 0.35 0.51 0.41 0.58
0.60 1.21 1.36 0.37 0.34 0.25 0.42 1.06 0.66 0.40 0.41 0.42 0.42 0.38 0.62 0.50 0.59 0.50 0.58 0.32 0.49 0.65 0.64 0.40 0.29 0.44 0.33 0.48 0.30 0.15 0.16 0.15 0.26 0.36 0.41 0.62 0.36 0.60 0.58 0.03 0.07 0.08 0.26 0.38 0.45 0.33 0.28 0.57 0.67 0.34 0.38 0.62 0.22 0.20 0.11 0.35 0.20 0.23 0.33 0.65 0.40 0.92 0.48 0.85 0.60 0.59 0.32 0.32 0.19 0.62 0.45 1.08 0.78 0.91 0.51 0.55 0.28 0.32 0.66 0.79 1.24 0.62 0.72 0.35 0.26 0.27 0.64 0.53
0.90 2.03 0.84 0.53 0.43 0.46 0.99 1.03 0.52 0.58 0.68 0.32 0.21 0.32 0.36 0.50 0.41 0.29 0.60 0.45 0.70 0.61 0.58 0.43 0.33 0.31 0.36 0.45 0.27 0.29 0.11 0.24 0.20 0.43 0.21 0.26 0.35 0.28 0.09 0.10 0.17 0.11 0.21 0.49 0.18 0.71 0.30 0.50 0.65 0.45 0.22 0.21 0.18 0.09 0.15 0.64 0.23 0.27 0.33 0.27 0.45 0.84 0.84 0.68 0.57 0.77 0.77 0.70 0.78 0.78 0.49 1.39 1.33 1.26 0.72 0.57 0.49 0.37 0.44 1.05 0.68 0.96 0.79 0.59 0.34 0.25 0.25 0.36
1.42 1.39 0.68 0.91 0.83 0.73 1.27 0.89 0.71 0.49 0.50 0.28 0.37 0.57 0.38 0.57 0.38 0.42 0.33 0.53 0.79 0.42 0.83 0.41 0.25 0.38 0.51 0.55 0.39 0.15 0.17 0.40 0.18 0.19 0.30 0.17 0.48 0.18 0.25 0.38 0.12 0.31 0.35 0.76 0.68 0.78 0.88 1.21 0.67 1.05 0.63 0.64 0.60 0.39 0.72 0.41 0.36 0.35 0.55 0.51 0.32 0.59 0.42 0.63 0.58 0.78 0.75 0.57 0.75 0.83 1.08 0.95 1.32 0.84 0.58 0.70 0.47 0.82 0.91 0.92 1.03 0.97 1.03 0.60 0.37 0.20 0.17 0.24
2.17 0.67 0.65 0.87 0.98 1.22 1.41 1.24 1.00 0.59 0.58 0.58 0.56 0.64 0.71 0.49 0.26 0.27 0.34 0.46 0.58 0.62 0.69 0.46 0.41 0.40 0.63 0.47 0.16 0.06 0.15 0.14 0.51 0.40 0.13 0.29 0.49 0.15 0.25 0.44 0.49 0.47 0.39 0.44 0.31 0.53 0.61 1.09 1.12 1.36 1.31 1.39 1.49 1.46 1.51 1.08 0.99 0.62 0.38 0.34 0.28 0.30 0.57 0.66 0.51 0.73 0.67 0.59 0.64 0.91 0.74 0.88 1.07 0.61 0.71 1.03 1.01 1.10 1.23 1.09 0.90 1.04 0.89 0.75 0.98 0.34 0.76 0.53
1.22 0.65 0.48 1.36 1.36 1.64 1.13 1.03 1.24 1.14 0.87 0.87 0.82 0.60 0.58 0.55 0.26 0.37 0.14 0.61 0.30 0.73 0.69 0.55 0.44 0.48 0.52 0.30 0.18 0.17 0.14 0.18 0.29 0.35 0.19 0.29 0.15 0.06 0.11 0.09 0.12 0.19 0.14 0.18 0.28 0.43 0.75 0.88 0.87 1.03 1.28 1.19 1.25 1.24 1.39 0.64 0.84 0.86 0.64 0.42 0.36 0.37 0.57 0.57 0.64 0.72 0.95 0.75 0.69 0.89 0.98 0.94 0.84 0.76 0.51 0.52 0.66 0.62 0.65 0.63 0.90 0.99 1.03 0.65 0.75 1.22 0.88 1.09
0.97 0.71 0.57 0.94 1.40 1.69 1.55 1.11 1.43 1.16 1.45 0.98 0.92 0.71 0.74 0.48 0.44 1.01 0.25 0.41 0.15 0.79 1.00 0.73 0.43 0.48 0.51 0.42 0.33 0.30 0.13 0.10 0.39 0.32 0.30 0.23 0.20 0.12 0.03 0.06 0.14 0.19 0.17 0.24 0.21 0.47 0.63 0.69 0.91 1.43 1.47 1.15 1.04 1.15 1.14 0.80 0.87 0.51 0.40 0.50 0.50 0.39 0.66 0.57 0.57 1.00 0.86 0.72 0.96 0.76 0.70 0.72 0.98 0.68 0.77 0.68 0.62 0.51 0.48 0.49 0.33 0.42 0.65 1.03 1.41 0.66 0.54 0.42
0.96 0.39 0.54 0.85 1.70 1.62 2.09 1.82 1.50 1.65 1.31 1.02 0.79 0.54 0.65 0.55 0.42 0.48 0.09 0.11 0.27 0.52 1.37 0.73 0.86 0.79 0.94 0.79 0.61 0.38 0.17 0.23 0.20 0.22 0.43 0.21 0.24 0.10 0.09 0.05 0.12 0.29 0.29 0.33 0.20 0.43 1.01 0.75 0.85 0.84 1.09 1.18 0.82 0.78 0.79 1.01 0.66 0.47 0.36 0.27 0.86 0.57 0.46 0.68 0.35 0.65 0.86 0.90 1.19 0.88 1.01 0.84 0.99 1.04 0.92 1.05 0.63 0.57 0.67 0.65 0.61 0.47 0.40 0.48 0.77 0.85 0.87 0.88
0.99 0.18 0.76 0.68 1.54 1.47 1.72 1.72 1.88 2.00 1.51 0.91 0.75 0.67 0.68 0.69 0.41 0.24 0.22 0.38 0.55 0.48 0.78 0.53 0.63 1.01 1.05 0.89 0.34 0.28 0.25 0.54 0.20 0.51 0.49 0.57 0.24 0.21 0.30 0.17 0.28 0.19 0.39 0.27 0.30 0.33 0.48 0.48 1.32 0.68 0.84 0.81 0.81 0.72 0.68 0.66 0.60 0.52 0.30 0.30 0.41 0.32 0.44 0.39 0.39 0.57 0.73 0.62 0.62 0.62 0.47 0.45 0.72 0.77 0.77 1.00 0.65 0.52 0.54 0.36 0.31 0.26 0.30 0.25 0.30 0.31 0.58 0.54
0.77 0.71 0.46 0.45 0.85 0.93 1.16 1.42 1.53 1.20 1.02 0.73 0.82 0.59 0.85 0.68 0.57 0.46 0.35 0.39 0.30 0.37 0.21 0.58 0.54 0.70 1.59 0.97 0.60 0.66 0.34 0.85 0.86 0.50 0.54 0.55 0.48 0.29 0.32 0.21 0.60 0.41 0.46 0.87 0.59 0.76 0.47 0.68 0.27 0.72 0.83 0.86 1.08 1.04 0.62 0.43 0.50 0.61 0.29 0.37 0.34 0.38 0.36 0.40 0.37 0.52 0.44 0.43 0.48 0.34 0.59 0.54 0.88 0.62 0.76 1.01 0.52 0.30 0.34 0.57 0.33 0.25 0.26 0.25 0.27 0.27 0.32 0.37
0.86 1.06 0.82 1.41 0.86 0.49 0.88 1.29 1.63 1.20 1.08 0.79 1.15 0.60 0.71 0.48 0.38 0.59 0.35 0.50 0.42 0.48 0.53 0.37 0.44 1.33 0.89 0.84 1.13 1.47 1.06 0.48 0.89 0.35 0.91 0.80 0.51 0.28 0.43 0.34 0.09 0.33 0.50 0.47 0.32 0.85 0.69 0.67 0.39 0.66 1.13 0.84 0.79 0.96 1.55 0.91 0.62 0.80 0.90 0.69 0.64 0.49 0.64 0.66 0.75 0.83 0.70 0.92 1.03 0.89 0.75 1.19 1.02 0.43 0.88 0.59 0.57 0.53 0.59 0.71 0.78 0.76 0.59 0.67 0.60 0.56 0.35 0.32
0.89 0.77 0.67 1.18 0.88 0.27 1.06 1.13 1.44 1.33 0.78 0.81 0.96 0.90 0.73 0.37 0.92 0.17 0.41 0.30 0.37 0.79 0.58 0.23 0.70 1.03 0.43 1.26 1.49 1.02 0.43 0.51 0.49 0.18 0.38 0.29 0.29 0.73 0.03 0.23 0.09 0.18 0.17 0.29 0.44 0.73 0.90 0.77 0.79 0.92 0.89 0.68 0.84 0.75 1.00 0.95 0.96 1.16 0.96 0.84 0.63 0.74 0.77 0.63 0.64 0.57 0.87 0.99 1.25 1.10 1.52 1.19 0.83 0.56 0.60 0.79 0.63 0.69 1.00 0.75 1.06 0.82 0.66 0.70 0.59 0.48 0.45 0.37